TimeCDT,TemperatureF,Dew PointF,Humidity,Sea Level PressureIn,VisibilityMPH,Wind Direction,Wind SpeedMPH,Gust SpeedMPH,PrecipitationIn,Events,Conditions,WindDirDegrees,DateUTC
12:15 AM,69.3,65.5,88,30.14,10.0,Calm,Calm,-,N/A,,Clear,0,2013-09-06 05:15:00
12:35 AM,68.5,67.3,96,30.14,10.0,Calm,Calm,-,N/A,,Clear,0,2013-09-06 05:35:00
12:55 AM,67.6,68.0,100,30.14,10.0,Calm,Calm,-,N/A,,Clear,0,2013-09-06 05:55:00
1:15 AM,68.7,66.0,91,30.14,10.0,Calm,Calm,-,N/A,,Clear,0,2013-09-06 06:15:00
1:35 AM,66.7,65.8,97,30.14,10.0,Calm,Calm,-,N/A,,Clear,0,2013-09-06 06:35:00
1:55 AM,65.8,66.2,100,30.14,10.0,Calm,Calm,-,N/A,,Clear,0,2013-09-06 06:55:00
2:15 AM,66.9,66.6,99,30.14,10.0,Calm,Calm,-,N/A,,Clear,0,2013-09-06 07:15:00
2:35 AM,66.2,66.2,100,30.12,10.0,Calm,Calm,-,N/A,,Clear,0,2013-09-06 07:35:00
2:55 AM,66.4,65.7,98,30.12,10.0,Calm,Calm,-,N/A,,Clear,0,2013-09-06 07:55:00
3:15 AM,65.8,65.8,100,30.12,10.0,Calm,Calm,-,N/A,,Clear,0,2013-09-06 08:15:00
3:35 AM,65.8,65.7,99,30.12,10.0,Calm,Calm,-,N/A,,Clear,0,2013-09-06 08:35:00
3:55 AM,65.8,65.5,99,30.11,10.0,Calm,Calm,-,N/A,,Clear,0,2013-09-06 08:55:00
4:15 AM,64.8,64.9,100,30.11,10.0,Calm,Calm,-,N/A,,Clear,0,2013-09-06 09:15:00
4:35 AM,63.9,64.2,100,30.11,10.0,Calm,Calm,-,N/A,,Clear,0,2013-09-06 09:35:00
4:55 AM,64.0,64.2,100,30.11,10.0,Calm,Calm,-,N/A,,Clear,0,2013-09-06 09:55:00
5:15 AM,64.2,64.4,100,30.12,10.0,Calm,Calm,-,N/A,,Clear,0,2013-09-06 10:15:00
5:35 AM,63.5,63.7,100,30.12,10.0,Calm,Calm,-,N/A,,Clear,0,2013-09-06 10:35:00
5:55 AM,63.3,63.3,100,30.12,10.0,Calm,Calm,-,N/A,,Clear,0,2013-09-06 10:55:00
6:15 AM,63.5,63.5,100,30.13,10.0,Calm,Calm,-,N/A,,Clear,0,2013-09-06 11:15:00
6:35 AM,64.0,64.2,100,30.13,10.0,Calm,Calm,-,N/A,,Clear,0,2013-09-06 11:35:00
6:55 AM,65.1,65.1,100,30.14,10.0,Calm,Calm,-,N/A,,Clear,0,2013-09-06 11:55:00
7:15 AM,65.8,64.9,97,30.14,10.0,Calm,Calm,-,N/A,,Clear,0,2013-09-06 12:15:00
7:35 AM,65.8,64.9,97,30.15,10.0,Calm,Calm,-,N/A,,Clear,0,2013-09-06 12:35:00
7:55 AM,67.5,66.4,96,30.15,10.0,SE,3.5,-,N/A,,Clear,140,2013-09-06 12:55:00
8:15 AM,69.8,67.3,92,30.14,10.0,Calm,Calm,-,N/A,,Clear,0,2013-09-06 13:15:00
8:35 AM,70.9,65.7,83,30.15,10.0,South,5.8,-,N/A,,Clear,170,2013-09-06 13:35:00
8:55 AM,71.2,62.4,74,30.15,10.0,SSE,3.5,-,N/A,,Clear,160,2013-09-06 13:55:00
9:15 AM,74.3,63.3,68,30.15,10.0,SSE,3.5,-,N/A,,Clear,160,2013-09-06 14:15:00
9:35 AM,76.1,63.1,64,30.15,10.0,South,3.5,-,N/A,,Clear,180,2013-09-06 14:35:00
9:55 AM,76.1,62.1,62,30.15,10.0,South,5.8,-,N/A,,Clear,190,2013-09-06 14:55:00
10:15 AM,77.7,63.0,60,30.15,10.0,SSW,4.6,-,N/A,,Clear,210,2013-09-06 15:15:00
10:35 AM,79.0,63.5,59,30.15,10.0,South,5.8,-,N/A,,Clear,180,2013-09-06 15:35:00
10:55 AM,80.6,64.2,57,30.15,10.0,South,4.6,-,N/A,,Clear,180,2013-09-06 15:55:00
11:15 AM,81.0,64.0,56,30.15,10.0,SSW,3.5,-,N/A,,Clear,210,2013-09-06 16:15:00
11:35 AM,81.9,63.9,54,30.14,10.0,ESE,3.5,-,N/A,,Clear,110,2013-09-06 16:35:00
11:55 AM,82.9,64.2,53,30.14,10.0,SSE,4.6,-,N/A,,Clear,150,2013-09-06 16:55:00
12:15 PM,83.1,63.9,52,30.14,10.0,Calm,Calm,-,N/A,,Clear,0,2013-09-06 17:15:00
12:35 PM,83.8,63.0,49,30.12,10.0,Calm,Calm,-,N/A,,Clear,0,2013-09-06 17:35:00
12:55 PM,84.7,61.7,46,30.12,10.0,Calm,Calm,-,N/A,,Clear,0,2013-09-06 17:55:00
1:15 PM,85.6,60.4,42,30.11,10.0,Calm,Calm,-,N/A,,Clear,0,2013-09-06 18:15:00
1:35 PM,87.1,61.5,42,30.10,10.0,South,4.6,-,N/A,,Clear,190,2013-09-06 18:35:00
1:55 PM,88.5,62.4,42,30.10,10.0,SW,4.6,-,N/A,,Clear,220,2013-09-06 18:55:00
2:15 PM,89.1,62.2,41,30.09,10.0,SSW,4.6,-,N/A,,Clear,210,2013-09-06 19:15:00
2:35 PM,89.1,61.7,40,30.09,10.0,SW,3.5,-,N/A,,Clear,230,2013-09-06 19:35:00
2:55 PM,90.5,63.1,40,30.08,10.0,Calm,Calm,-,N/A,,Clear,0,2013-09-06 19:55:00
3:15 PM,90.0,62.1,39,30.07,10.0,Calm,Calm,-,N/A,,Clear,0,2013-09-06 20:15:00
3:35 PM,90.7,63.7,41,30.07,10.0,South,3.5,-,N/A,,Clear,190,2013-09-06 20:35:00
3:55 PM,91.0,63.9,40,30.06,10.0,SSW,4.6,-,N/A,,Clear,200,2013-09-06 20:55:00
4:15 PM,91.0,63.0,39,30.05,10.0,Calm,Calm,-,N/A,,Clear,0,2013-09-06 21:15:00
4:35 PM,90.9,63.7,40,30.04,10.0,South,3.5,-,N/A,,Clear,190,2013-09-06 21:35:00
4:55 PM,90.9,64.2,41,30.04,10.0,South,5.8,-,N/A,,Clear,180,2013-09-06 21:55:00
5:15 PM,91.0,64.8,42,30.04,10.0,SSW,4.6,-,N/A,,Clear,200,2013-09-06 22:15:00
5:35 PM,90.1,63.9,42,30.03,10.0,South,3.5,-,N/A,,Clear,170,2013-09-06 22:35:00
5:55 PM,88.7,63.0,42,30.03,10.0,South,5.8,-,N/A,,Clear,170,2013-09-06 22:55:00
6:15 PM,88.5,63.3,43,30.03,10.0,South,4.6,-,N/A,,Clear,180,2013-09-06 23:15:00
6:35 PM,86.7,62.8,45,30.02,10.0,South,4.6,-,N/A,,Clear,170,2013-09-06 23:35:00
6:55 PM,84.7,63.3,48,30.02,10.0,South,4.6,-,N/A,,Clear,180,2013-09-06 23:55:00
7:15 PM,83.7,64.6,52,30.02,10.0,South,3.5,-,N/A,,Clear,190,2013-09-07 00:15:00
7:35 PM,81.9,65.1,57,30.02,10.0,South,3.5,-,N/A,,Clear,190,2013-09-07 00:35:00
7:55 PM,81.0,66.2,61,30.02,10.0,Calm,Calm,-,N/A,,Clear,0,2013-09-07 00:55:00
8:15 PM,78.3,68.0,71,30.02,10.0,Calm,Calm,-,N/A,,Clear,0,2013-09-07 01:15:00
8:35 PM,76.1,70.5,83,30.02,10.0,Calm,Calm,-,N/A,,Clear,0,2013-09-07 01:35:00
8:55 PM,76.1,71.1,84,30.03,10.0,Calm,Calm,-,N/A,,Clear,0,2013-09-07 01:55:00
9:15 PM,75.7,73.4,92,30.02,10.0,Calm,Calm,-,N/A,,Clear,0,2013-09-07 02:15:00
9:35 PM,73.9,72.7,96,30.02,10.0,Calm,Calm,-,N/A,,Clear,0,2013-09-07 02:35:00
9:55 PM,73.4,72.7,98,30.02,10.0,Calm,Calm,-,N/A,,Clear,0,2013-09-07 02:55:00
10:15 PM,72.9,72.1,98,30.02,10.0,Calm,Calm,-,N/A,,Clear,0,2013-09-07 03:15:00
10:35 PM,72.0,72.3,100,30.02,10.0,Calm,Calm,-,N/A,,Clear,0,2013-09-07 03:35:00
10:55 PM,72.0,72.3,100,30.02,10.0,SE,3.5,-,N/A,,Clear,140,2013-09-07 03:55:00
11:15 PM,72.9,72.9,100,30.02,10.0,Calm,Calm,-,N/A,,Clear,0,2013-09-07 04:15:00
11:35 PM,71.1,71.4,100,30.02,10.0,Calm,Calm,-,N/A,,Clear,0,2013-09-07 04:35:00
11:55 PM,71.2,71.2,100,30.02,10.0,Calm,Calm,-,N/A,,Clear,0,2013-09-07 04:55:00